SCP
1 1 1 1 1 1 1 1 2 2 2 2 3 4 5 4 3 3 3 3 4 4 3 3 3 4 3 3 3 2 2 1 1 1 1 1 1 1 1 1 1 1 1
1 1 1 1 1 1 1 1 1 2 2 3 4 6 6 5 3 2 2 3 4 4 3 3 3 4 3 3 3 2 2 1 1 1 1 1 1 1 1 1 1 1 1
1 1 1 1 1 1 1 1 1 2 3 4 6 7 7 5 3 2 2 3 4 3 3 2 3 3 3 3 2 2 2 1 1 1 1 1 1 1 1 1 1 1 1
1 2 2 2 1 1 1 1 1 2 4 6 7 7 6 4 3 2 2 2 3 3 2 2 2 3 3 2 2 1 1 1 1 1 1 1 1 1 1 1 1 1 1
2 2 2 2 2 2 2 2 2 2 4 6 7 6 5 3 2 1 1 1 2 2 2 2 2 2 2 2 2 1 1 1 1 1 1 1 1 1 1 1 1 1 1
2 2 2 3 3 2 2 2 2 2 3 3 4 4 3 2 1 1 1 1 1 2 2 2 2 2 2 2 2 2 2 1 1 1 1 1 2 1 1 1 1 1 1
3 2 2 2 3 2 2 2 2 2 2 2 2 2 1 1 1 1 1 1 1 2 2 2 2 2 2 2 2 2 2 2 2 2 1 2 2 2 1 1 1 1 1
3 3 3 2 2 2 2 2 2 2 2 2 2 2 1 1 1 1 1 1 2 1 2 2 2 2 2 2 2 3 3 2 2 2 2 2 2 2 2 2 2 1 1
3 2 2 2 2 2 2 2 3 3 3 3 2 2 2 2 2 2 2 2 1 1 2 2 2 2 2 2 3 3 3 3 3 3 3 3 3 3 3 3 2 2 1
2 2 1 1 2 2 2 2 3 3 3 3 3 2 2 2 2 2 3 3 2 2 2 2 2 2 2 2 2 3 3 3 3 3 4 4 4 4 4 3 4 3 3
3 2 2 2 2 2 2 2 3 3 3 3 3 2 2 2 3 3 4 4 3 3 3 3 3 4 3 3 2 2 2 3 3 4 4 5 5 5 5 5 5 6 5
3 3 3 2 2 3 3 3 3 3 3 3 3 3 3 3 3 4 4 4 4 4 4 4 5 5 4 3 3 3 3 3 3 3 4 4 4 4 5 5 6 6 5
3 3 3 3 4 5 5 5 4 4 3 3 4 4 4 4 4 5 5 4 4 4 4 5 5 5 5 4 4 4 3 3 3 4 4 4 4 4 4 4 4 4 4
2 3 4 5 7 8 9 8 6 4 4 4 5 5 5 5 5 5 6 5 5 5 5 5 6 6 5 5 4 4 4 4 4 4 5 5 5 4 4 4 3 3 3
3 4 6 9 11 11 11 9 7 5 4 5 6 6 6 6 6 6 6 6 6 6 5 6 6 6 5 5 5 5 5 5 5 5 5 5 5 4 3 3 3 3 3
5 7 10 12 13 13 11 9 7 6 5 5 6 6 6 6 7 7 7 7 7 6 6 6 6 6 5 5 5 5 6 6 7 7 7 6 5 3 2 2 2 3 3
8 9 11 13 13 12 10 8 8 7 6 6 6 6 6 7 7 7 8 8 8 7 7 6 6 6 5 4 3 4 5 7 8 8 8 6 4 3 2 2 2 2 3
10 11 12 12 11 10 9 8 7 6 6 6 6 5 5 6 7 8 8 9 9 9 8 7 6 6 5 4 2 2 4 7 8 8 7 6 4 3 3 3 3 3 3
11 12 12 10 9 8 7 6 6 5 5 6 6 5 5 5 6 7 8 9 10 10 8 6 6 6 6 4 2 2 4 6 7 7 6 4 3 2 2 3 4 5 5
11 11 10 8 7 6 6 6 7 7 7 7 7 7 6 6 6 6 7 9 10 9 6 5 6 8 7 5 2 2 4 6 6 5 4 3 2 2 1 3 4 5 5
9 9 8 7 6 6 6 7 8 9 9 8 8 7 6 6 7 7 8 9 9 6 5 7 8 8 7 5 2 2 3 4 4 4 4 3 2 1 1 2 3 4 5
7 7 6 6 6 6 7 8 8 8 9 9 8 7 6 5 6 8 9 9 7 6 6 8 8 7 5 4 2 1 2 3 3 4 4 3 2 1 1 1 2 2 2
6 5 5 5 5 6 6 6 5 5 6 7 6 6 5 6 7 8 9 8 7 7 7 7 6 4 3 3 2 1 1 2 3 3 3 2 1 1 1 1 1 1 1
5 4 3 3 4 5 5 5 5 5 5 5 5 5 5 6 8 8 6 6 7 7 6 6 5 4 3 3 2 2 2 2 2 2 2 2 1 1 1 1 1 1 2
4 3 3 3 3 4 5 6 6 6 6 5 5 4 4 5 5 5 4 4 4 4 4 4 4 4 3 2 2 2 2 1 1 1 2 2 2 2 2 2 2 2 2
3 3 3 3 3 4 5 6 7 7 7 6 4 3 3 4 3 3 2 2 2 2 2 2 3 4 3 2 1 1 1 1 1 1 2 2 2 2 3 3 3 3 3
Wind_Speed
7 7 8 8 7 7 6 6 5 5 5 4 4 4 4 4 3 3 4 5 4 5 4 3 4 4 3 3 4 3 4 3 2 2 2 3 4 3 3 3 3 4 4
7 8 9 8 8 8 7 7 6 6 6 4 3 3 2 3 3 3 4 4 5 5 5 5 4 4 3 4 4 4 3 3 3 2 2 3 4 4 4 3 4 3 3
8 9 9 9 9 8 8 6 7 7 6 5 4 3 3 3 3 3 3 5 5 5 4 5 4 4 5 4 5 5 5 3 3 3 3 2 2 2 4 4 3 3 3
8 8 9 10 9 9 8 7 7 7 7 6 5 5 4 3 3 2 2 3 5 5 5 6 5 5 4 4 6 5 4 5 4 3 3 3 2 3 2 3 3 3 4
8 8 9 9 8 8 8 7 7 7 7 6 5 5 4 3 2 2 2 2 3 5 5 5 5 5 5 5 5 4 5 4 5 4 3 3 3 5 4 3 3 3 3
7 8 8 8 8 7 7 7 7 6 6 6 6 5 4 4 3 3 3 3 3 3 5 6 5 6 5 5 6 5 7 5 5 5 4 4 4 4 4 4 4 3 3
6 7 8 9 8 8 7 7 7 6 6 7 6 6 5 5 5 5 4 4 3 3 4 4 5 5 5 6 6 6 6 7 7 6 5 5 5 4 4 5 4 4 3
5 6 7 8 8 8 8 7 7 7 7 6 6 5 6 5 4 5 4 4 4 3 3 4 5 6 6 6 6 6 7 6 7 8 7 5 5 5 5 5 5 5 4
4 5 5 7 7 8 7 7 7 6 6 6 5 5 5 5 4 4 5 4 3 3 4 5 5 5 6 6 6 6 6 6 7 7 8 7 5 5 5 5 5 5 6
4 4 4 5 6 7 7 7 7 6 6 6 5 4 5 5 4 4 4 3 3 3 4 4 5 5 5 6 6 6 6 6 6 5 6 6 6 5 5 5 5 5 6
4 4 4 4 5 6 6 6 6 6 5 5 5 4 4 4 4 4 4 3 3 3 3 4 4 5 5 5 5 6 6 7 6 6 6 7 6 5 5 5 5 5 5
2 3 4 4 4 5 5 5 5 5 5 5 5 4 4 4 4 4 4 4 4 4 4 4 4 4 5 5 6 6 6 6 6 6 6 6 5 6 6 5 5 5 5
3 3 4 4 3 3 3 4 4 4 4 4 4 4 4 4 4 4 4 4 5 5 5 4 5 5 5 5 6 6 7 6 6 6 6 6 6 6 5 5 5 5 6
3 3 3 3 3 3 2 2 2 3 3 3 4 4 4 5 5 4 4 4 5 5 5 5 5 5 6 5 5 6 6 6 6 5 6 6 6 6 6 5 6 5 5
3 3 3 3 2 2 2 2 2 2 2 3 3 4 4 4 4 4 4 4 5 5 5 5 5 5 5 4 5 5 6 5 6 5 5 5 5 4 5 5 4 5 5
2 2 2 2 2 2 1 2 2 2 2 2 2 3 3 4 4 4 4 4 4 5 4 5 5 5 4 1 2 5 5 5 5 5 5 5 6 5 4 4 4 5 6
1 1 1 1 1 1 1 1 1 1 2 2 2 2 3 4 4 4 4 4 4 4 4 5 5 5 3 2 3 4 5 6 5 4 4 4 2 4 4 4 6 6 6
1 1 1 1 1 1 1 1 2 2 1 2 2 2 3 3 3 4 4 4 4 4 4 4 4 4 3 3 3 5 7 6 5 5 4 4 4 3 3 4 4 4 4
0 0 1 1 0 0 1 1 1 1 1 1 2 2 3 3 4 4 4 4 3 4 4 4 4 4 4 3 4 5 6 5 6 5 5 5 5 2 3 4 4 4 4
1 1 1 1 1 0 1 1 1 1 1 1 2 2 2 3 4 3 3 3 4 4 4 4 4 5 4 4 4 6 6 5 5 4 5 5 4 3 4 5 5 5 5
1 1 1 1 1 1 1 1 1 1 1 1 1 2 2 3 3 3 3 3 4 4 4 4 4 4 4 4 5 6 5 5 5 4 4 3 6 5 5 6 6 5 5
1 1 1 1 1 1 0 0 1 2 2 1 2 2 2 3 2 2 2 3 3 4 4 4 4 3 3 3 4 5 6 5 5 4 4 2 5 6 7 6 4 3 5
1 1 1 1 1 1 1 1 1 2 2 2 2 2 2 2 2 3 3 3 3 4 3 3 3 3 2 2 4 5 5 5 5 3 1 1 4 5 6 6 6 6 6
1 1 0 0 0 1 1 1 1 1 2 3 2 2 2 2 1 2 3 3 3 3 4 4 3 3 2 2 1 2 3 5 5 4 3 5 5 5 4 4 6 6 5
1 1 1 1 1 1 1 1 1 1 2 3 3 2 2 2 1 1 1 2 2 2 3 4 3 3 3 1 2 2 3 3 2 2 3 3 4 4 4 4 3 4 4
1 2 2 2 2 2 2 1 1 1 2 2 3 2 2 1 1 1 0 2 1 1 1 3 4 2 2 1 1 2 2 2 2 3 3 3 4 4 3 3 3 3 3
Wind_Direction
173 175 178 176 171 170 175 178 183 181 192 189 193 186 185 187 183 186 183 191 195 190 200 208 187 204 201 205 203 200 203 207 213 233 227 219 217 220 211 227 239 224 226
176 180 182 182 181 179 183 185 189 189 199 195 207 206 198 198 187 192 182 196 195 194 193 202 207 199 198 202 205 207 219 211 206 230 234 221 205 210 213 219 223 235 234
184 182 182 185 185 186 190 193 197 195 199 196 198 189 184 203 193 195 195 203 203 201 206 203 218 213 216 203 209 212 217 225 223 227 244 249 240 214 200 210 215 226 241
188 183 182 186 189 189 188 193 197 195 193 195 202 197 199 203 200 206 197 196 202 208 207 210 212 216 223 211 218 206 216 221 224 220 238 258 285 263 229 212 218 231 240
190 185 185 184 188 189 187 185 187 188 187 194 196 206 217 213 205 208 196 213 200 206 210 213 215 214 222 218 228 216 226 227 232 234 232 230 234 245 259 254 240 233 238
190 181 180 179 183 184 183 180 179 183 184 191 197 201 215 223 229 227 226 220 211 208 214 219 216 218 221 214 221 222 222 231 238 242 239 234 238 238 247 258 256 251 243
189 181 178 178 179 181 182 179 176 181 186 193 202 203 211 219 225 233 228 239 237 221 212 224 219 221 217 219 219 222 229 226 226 231 236 240 246 251 253 261 268 267 257
176 177 178 176 176 179 181 180 178 179 185 193 201 206 213 221 226 230 242 237 246 246 235 229 228 226 224 225 220 226 223 223 226 231 235 240 241 244 247 254 262 268 259
160 158 164 169 171 178 179 180 177 177 182 189 191 195 207 223 229 226 230 239 245 243 237 237 236 234 229 230 227 230 231 226 230 233 228 236 240 243 246 247 250 261 269
153 151 152 163 165 169 171 174 175 180 183 184 194 192 201 211 220 230 235 246 253 258 256 250 247 242 239 236 236 236 231 233 234 237 239 240 243 245 242 239 241 246 259
153 146 148 152 161 161 164 168 174 177 182 188 192 202 203 209 217 224 234 239 248 251 251 252 249 244 239 236 236 242 235 235 237 240 237 238 244 241 237 238 244 250 257
130 133 140 143 148 157 162 164 175 183 189 189 191 197 205 209 217 222 230 235 240 242 241 243 244 248 242 239 237 240 242 236 234 237 241 244 240 237 244 243 245 246 249
121 123 128 135 138 143 155 160 178 183 184 186 195 196 206 211 220 231 235 235 237 242 244 241 242 246 246 241 239 239 241 238 237 236 238 242 243 245 245 248 249 248 245
125 124 127 127 127 128 142 163 171 168 182 189 198 205 217 218 221 229 236 237 236 239 242 243 244 245 245 241 243 243 241 239 237 235 237 241 242 242 243 244 247 252 254
129 132 132 125 133 137 150 168 169 163 176 194 205 210 222 224 224 228 232 235 238 239 240 241 241 242 242 242 249 249 243 241 239 233 236 238 242 251 254 261 250 248 250
140 133 141 145 150 158 172 172 180 174 193 210 212 212 221 225 228 230 234 235 237 244 241 239 239 240 245 226 254 265 257 250 242 238 235 226 217 213 220 246 264 270 260
166 163 163 160 165 178 183 175 182 196 212 225 227 221 226 228 233 237 233 236 238 238 242 243 245 248 248 212 224 252 258 251 245 240 239 245 217 222 229 216 225 247 259
181 174 178 170 175 178 171 183 179 184 216 238 240 242 244 241 239 238 237 238 237 240 244 246 249 252 243 200 227 247 249 251 244 239 237 239 236 241 252 252 248 249 247
102 125 181 168 119 156 174 183 194 195 221 256 272 265 255 248 242 241 243 242 243 247 248 248 245 246 236 202 225 254 252 240 237 235 231 233 230 206 250 248 251 253 252
61 71 97 86 86 92 186 199 221 225 251 272 280 285 272 256 249 247 247 244 244 249 255 253 253 251 247 211 215 242 254 242 238 228 221 213 219 197 235 243 244 247 253
82 90 85 69 46 20 168 207 271 272 285 294 285 276 277 266 260 256 254 254 253 258 266 267 264 258 252 225 209 229 254 254 244 237 233 198 170 200 228 249 251 251 262
129 115 91 61 41 23 167 253 317 322 309 285 271 268 267 266 250 249 255 258 258 250 252 254 262 255 240 231 208 214 236 268 254 249 247 191 176 206 219 233 240 244 253
138 128 112 83 63 7 268 273 323 325 314 298 285 283 272 266 259 243 237 240 245 258 262 260 257 260 264 214 182 198 217 232 247 255 299 179 199 217 219 216 218 224 240
151 135 140 281 317 304 277 284 302 316 317 305 298 285 271 261 264 272 259 259 261 266 269 271 270 264 256 272 268 224 204 205 223 235 201 199 214 237 255 217 211 228 243
190 209 223 242 266 289 276 270 279 310 305 294 294 292 287 296 283 283 317 293 307 320 296 292 287 278 268 331 352 300 279 274 276 262 233 227 222 226 227 231 236 241 235
232 233 240 251 259 262 262 259 254 231 260 267 279 285 287 300 298 300 174 65 10 75 27 331 313 322 8 47 319 290 290 291 258 251 235 236 242 248 247 243 242 244 245